Simultaneous Nadir Overpasses (SNOs) Predictions

Prediction of SNOs between GOES-16 and NOAA-19 Satellite Orbit:

Table of predicted SNOs for the next 14.0 days since TLE Epoch: 1/20/2024
Index Date Time (GOES-16) GOES-16 Lat,Lon NOAA-19 Lat,Lon Distance(km) Time Diff (sec)
1 01/21/2024 02:11:58 0.01, -75.20 -0.46, -77.36 246.24 80
2 01/22/2024 01:57:08 0.01, -75.20 0.23, -74.40 92.08 80
3 01/23/2024 01:44:56 0.02, -75.20 0.86, -71.42 430.46 80
4 01/24/2024 14:19:30 -0.01, -75.23 0.90, -79.08 438.93 80
5 01/25/2024 14:07:19 -0.01, -75.24 0.22, -76.11 100.00 80
6 01/26/2024 13:52:29 -0.00, -75.25 -0.46, -73.15 239.33 80
7 01/29/2024 02:14:56 -0.02, -75.26 -0.61, -77.86 296.05 80
8 01/30/2024 02:00:05 -0.02, -75.28 0.10, -74.90 44.03 80
9 01/31/2024 01:47:54 -0.02, -75.29 0.75, -71.93 384.00 80
10 02/01/2024 14:19:49 0.02, -75.35 0.97, -79.59 484.22 80
11 02/02/2024 14:10:18 0.02, -75.37 0.33, -76.62 144.03 80
